When you browse on this site, cookies collect data to enhance your experience and personalize the content and advertising you see.
Visit our Privacy Policy to learn more. By continuing to use the site, you agree to this use of cookies and data.
  • In United Kingdom
  • List of Countries
  • For 7 days
  • Water Temperature
  • Weather Map
  • Weather Widgets
  • user-avatar
    Login

    Hourly Weather Goranboy

    Today, 23 February, Sunday

    Time Temperature Precipitation Wind Pressure Humidity
    00:00 +8°C° 0 mm 0 mps 752 mmHg 90%
    01:00 +9°C° 0 mm 1 mps 751 mmHg 89%
    02:00 +9°C° 0 mm 1 mps 751 mmHg 88%
    03:00 +8°C° 0 mm 1 mps 751 mmHg 88%
    04:00 +8°C° 0 mm 1 mps 751 mmHg 88%
    05:00 +8°C° 0 mm 1 mps 751 mmHg 87%
    06:00 +7°C° 0 mm 1 mps 751 mmHg 87%
    07:00 +9°C° 0 mm 1 mps 751 mmHg 80%
    08:00 +10°C° 0 mm 1 mps 751 mmHg 74%
    09:00 +10°C° 0 mm 2 mps 751 mmHg 69%
    10:00 +12°C° 0 mm 2 mps 751 mmHg 63%
    11:00 +13°C° 0 mm 3 mps 751 mmHg 56%
    12:00 +14°C° 0 mm 4 mps 750 mmHg 50%
    13:00 +15°C° 0 mm 4 mps 750 mmHg 48%
    14:00 +15°C° 0 mm 4 mps 749 mmHg 45%
    15:00 +17°C° 0 mm 4 mps 749 mmHg 42%
    16:00 +15°C° 0 mm 4 mps 749 mmHg 44%
    17:00 +15°C° 0 mm 4 mps 750 mmHg 46%
    18:00 +14°C° 0 mm 4 mps 750 mmHg 48%
    19:00 +13°C° 0 mm 4 mps 750 mmHg 49%
    20:00 +13°C° 0 mm 4 mps 750 mmHg 51%
    21:00 +12°C° 0 mm 3 mps 751 mmHg 52%
    22:00 +12°C° 0 mm 4 mps 751 mmHg 53%
    23:00 +11°C° 0 mm 4 mps 751 mmHg 54%

    Tomorrow, 24 February, Monday

    Time Temperature Precipitation Wind Pressure Humidity
    00:00 +11°C° 0 mm 4 mps 751 mmHg 55%
    01:00 +10°C° 0 mm 4 mps 750 mmHg 57%
    02:00 +10°C° 0 mm 4 mps 750 mmHg 58%
    03:00 +8°C° 0 mm 4 mps 750 mmHg 59%
    04:00 +9°C° 0 mm 3 mps 750 mmHg 61%
    05:00 +8°C° 0 mm 2 mps 750 mmHg 63%
    06:00 +8°C° 0 mm 2 mps 750 mmHg 64%
    07:00 +8°C° 0 mm 2 mps 749 mmHg 61%
    08:00 +9°C° 0 mm 2 mps 749 mmHg 58%
    09:00 +10°C° 0 mm 2 mps 749 mmHg 55%
    10:00 +13°C° 0 mm 2 mps 748 mmHg 51%
    11:00 +14°C° 0 mm 2 mps 747 mmHg 47%
    12:00 +15°C° 0 mm 1 mps 746 mmHg 44%
    13:00 +15°C° 0 mm 2 mps 746 mmHg 41%
    14:00 +16°C° 0 mm 2 mps 745 mmHg 39%
    15:00 +17°C° 0 mm 2 mps 744 mmHg 36%
    16:00 +16°C° 0 mm 1 mps 744 mmHg 39%
    17:00 +15°C° 0 mm 1 mps 743 mmHg 42%
    18:00 +14°C° 0 mm 1 mps 743 mmHg 44%
    19:00 +14°C° 0 mm 1 mps 743 mmHg 45%
    20:00 +13°C° 0 mm 1 mps 743 mmHg 45%
    21:00 +13°C° 0 mm 2 mps 743 mmHg 45%
    22:00 +13°C° 0 mm 2 mps 742 mmHg 46%
    23:00 +12°C° 0 mm 2 mps 742 mmHg 46%

    Day after tomorrow, 25 February, Tuesday

    Time Temperature Precipitation Wind Pressure Humidity
    00:00 +12°C° 0 mm 2 mps 742 mmHg 46%
    01:00 +11°C° 0 mm 3 mps 741 mmHg 46%
    02:00 +10°C° 0 mm 3 mps 741 mmHg 45%
    03:00 +10°C° 0 mm 3 mps 741 mmHg 45%
    04:00 +10°C° 0 mm 4 mps 741 mmHg 45%
    05:00 +9°C° 0 mm 5 mps 741 mmHg 45%
    06:00 +9°C° 0 mm 7 mps 741 mmHg 45%
    07:00 +8°C° 0 mm 9 mps 741 mmHg 45%
    08:00 +8°C° 0 mm 11 mps 741 mmHg 46%
    09:00 +9°C° 0 mm 13 mps 742 mmHg 46%
    10:00 +10°C° 0 mm 13 mps 742 mmHg 42%
    11:00 +10°C° 0 mm 14 mps 742 mmHg 37%
    12:00 +12°C° 0 mm 14 mps 742 mmHg 33%
    13:00 +12°C° 0.1 mm 14 mps 742 mmHg 30%
    14:00 +12°C° 0.1 mm 14 mps 742 mmHg 28%
    15:00 +12°C° 0.1 mm 14 mps 743 mmHg 26%
    16:00 +10°C° 0 mm 13 mps 744 mmHg 27%
    17:00 +10°C° 0 mm 12 mps 745 mmHg 29%
    18:00 +9°C° 0 mm 11 mps 746 mmHg 31%
    19:00 +8°C° 0 mm 9 mps 747 mmHg 33%
    20:00 +9°C° 0 mm 7 mps 748 mmHg 35%
    21:00 +8°C° 0 mm 6 mps 749 mmHg 38%
    22:00 +7°C° 0 mm 5 mps 750 mmHg 40%
    23:00 +6°C° 0 mm 5 mps 750 mmHg 42%

    26 February, Wednesday

    Time Temperature Precipitation Wind Pressure Humidity
    00:00 +6°C° 0 mm 5 mps 750 mmHg 45%
    01:00 +5°C° 0 mm 4 mps 751 mmHg 48%
    02:00 +5°C° 0 mm 4 mps 751 mmHg 50%
    03:00 +4°C° 0 mm 3 mps 751 mmHg 53%
    04:00 +4°C° 0 mm 3 mps 751 mmHg 57%
    05:00 +3°C° 0 mm 3 mps 752 mmHg 60%
    06:00 +4°C° 0 mm 2 mps 752 mmHg 64%
    07:00 +5°C° 0 mm 2 mps 752 mmHg 58%
    08:00 +6°C° 0 mm 2 mps 753 mmHg 52%
    09:00 +8°C° 0 mm 1 mps 753 mmHg 47%
    10:00 +8°C° 0 mm 2 mps 753 mmHg 46%
    11:00 +9°C° 0 mm 2 mps 753 mmHg 45%
    12:00 +10°C° 0 mm 2 mps 753 mmHg 44%
    13:00 +10°C° 0 mm 2 mps 752 mmHg 44%
    14:00 +10°C° 0 mm 2 mps 752 mmHg 44%
    15:00 +10°C° 0 mm 2 mps 752 mmHg 44%
    16:00 +10°C° 0 mm 2 mps 752 mmHg 47%
    17:00 +9°C° 0 mm 2 mps 752 mmHg 49%
    18:00 +10°C° 0 mm 1 mps 752 mmHg 52%
    19:00 +9°C° 0 mm 1 mps 752 mmHg 54%
    20:00 +8°C° 0 mm 1 mps 752 mmHg 56%
    21:00 +8°C° 0 mm 1 mps 752 mmHg 58%
    22:00 +7°C° 0 mm 1 mps 752 mmHg 60%
    23:00 +6°C° 0 mm 0 mps 752 mmHg 62%

    27 February, Thursday

    Time Temperature Precipitation Wind Pressure Humidity
    00:00 +5°C° 0 mm 0 mps 752 mmHg 64%
    01:00 +5°C° 0 mm 0 mps 752 mmHg 65%
    02:00 +5°C° 0 mm 0 mps 751 mmHg 65%
    03:00 +6°C° 0 mm 1 mps 751 mmHg 65%
    04:00 +5°C° 0 mm 1 mps 751 mmHg 65%
    05:00 +5°C° 0 mm 1 mps 751 mmHg 65%
    06:00 +5°C° 0 mm 1 mps 751 mmHg 65%
    07:00 +6°C° 0 mm 1 mps 751 mmHg 59%
    08:00 +8°C° 0 mm 1 mps 751 mmHg 54%
    09:00 +9°C° 0 mm 1 mps 751 mmHg 48%
    10:00 +10°C° 0 mm 1 mps 750 mmHg 45%
    11:00 +11°C° 0 mm 1 mps 750 mmHg 41%
    12:00 +13°C° 0 mm 1 mps 750 mmHg 38%
    13:00 +13°C° 0 mm 1 mps 749 mmHg 36%
    14:00 +14°C° 0 mm 2 mps 748 mmHg 35%
    15:00 +14°C° 0 mm 2 mps 748 mmHg 33%
    16:00 +14°C° 0 mm 2 mps 748 mmHg 36%
    17:00 +13°C° 0 mm 2 mps 748 mmHg 40%
    18:00 +12°C° 0 mm 1 mps 748 mmHg 43%
    19:00 +11°C° 0 mm 1 mps 748 mmHg 46%
    20:00 +11°C° 0 mm 1 mps 748 mmHg 50%
    21:00 +10°C° 0 mm 1 mps 748 mmHg 53%
    22:00 +9°C° 0 mm 1 mps 748 mmHg 55%
    23:00 +9°C° 0 mm 1 mps 747 mmHg 58%

    28 February, Friday

    Time Temperature Precipitation Wind Pressure Humidity
    00:00 +8°C° 0 mm 1 mps 747 mmHg 60%
    01:00 +8°C° 0 mm 1 mps 746 mmHg 64%
    02:00 +6°C° 0 mm 0 mps 746 mmHg 68%
    03:00 +6°C° 0 mm 0 mps 745 mmHg 73%
    04:00 +5°C° 0 mm 0 mps 745 mmHg 71%
    05:00 +5°C° 0 mm 0 mps 744 mmHg 70%
    06:00 +6°C° 0 mm 1 mps 744 mmHg 69%
    07:00 +8°C° 0 mm 1 mps 744 mmHg 62%
    08:00 +9°C° 0 mm 1 mps 744 mmHg 55%
    09:00 +11°C° 0 mm 1 mps 743 mmHg 49%
    10:00 +12°C° 0 mm 1 mps 743 mmHg 44%
    11:00 +13°C° 0 mm 1 mps 742 mmHg 39%
    12:00 +15°C° 0 mm 1 mps 742 mmHg 34%
    13:00 +15°C° 0 mm 1 mps 741 mmHg 32%
    14:00 +16°C° 0 mm 1 mps 741 mmHg 30%
    15:00 +16°C° 0 mm 0 mps 740 mmHg 27%
    16:00 +14°C° 0 mm 0 mps 740 mmHg 30%
    17:00 +13°C° 0 mm 0 mps 741 mmHg 33%
    18:00 +12°C° 0 mm 0 mps 741 mmHg 37%
    19:00 +13°C° 0 mm 1 mps 741 mmHg 35%
    20:00 +13°C° 0 mm 1 mps 741 mmHg 34%
    21:00 +13°C° 0 mm 1 mps 741 mmHg 33%
    22:00 +12°C° 0 mm 3 mps 741 mmHg 32%
    23:00 +13°C° 0 mm 5 mps 741 mmHg 31%
    Show more